Time,TemperatureF,DewpointF,PressureIn,WindDirection,WindDirectionDegrees,WindSpeedMPH,WindSpeedGustMPH,Humidity,HourlyPrecipIn,Conditions,Clouds,dailyrainin,SolarRadiationWatts/m^2,SoftwareType,DateUTC
2013-07-04 00:02:00,73.3,69.9,30.07,SW,229,0.0,6.0,89,0.00,,---,0.00,0.00,VWS V14.00,2013-07-04 04:02:00,
2013-07-04 00:04:00,73.3,69.9,30.07,SSW,198,5.0,6.0,89,0.00,,---,0.00,0.00,VWS V14.00,2013-07-04 04:04:00,
2013-07-04 00:07:00,73.3,69.9,30.08,SSW,199,1.0,5.0,89,0.00,,---,0.00,0.00,VWS V14.00,2013-07-04 04:07:00,
2013-07-04 00:09:00,73.2,69.8,30.07,SSW,199,0.0,5.0,89,0.00,,---,0.00,0.00,VWS V14.00,2013-07-04 04:09:00,
2013-07-04 00:14:00,73.1,69.7,30.07,SSW,192,0.0,3.0,89,0.00,,---,0.00,0.00,VWS V14.00,2013-07-04 04:14:00,
2013-07-04 00:19:00,73.0,69.6,30.07,South,188,0.0,4.0,89,0.00,,---,0.00,0.00,VWS V14.00,2013-07-04 04:19:00,
2013-07-04 00:24:00,72.9,69.5,30.08,SSW,209,0.0,6.0,89,0.00,,---,0.00,0.00,VWS V14.00,2013-07-04 04:24:00,
2013-07-04 00:27:00,72.9,69.8,30.07,SSE,167,0.0,5.0,90,0.00,,---,0.00,0.00,VWS V14.00,2013-07-04 04:27:00,
2013-07-04 00:32:00,72.9,69.5,30.07,WSW,250,4.0,6.0,89,0.00,,---,0.00,0.00,VWS V14.00,2013-07-04 04:32:00,
2013-07-04 00:37:00,72.8,69.4,30.08,SSW,197,4.0,8.0,89,0.00,,---,0.00,0.00,VWS V14.00,2013-07-04 04:37:00,
2013-07-04 00:42:00,72.8,69.4,30.08,SW,215,4.0,8.0,89,0.00,,---,0.00,0.00,VWS V14.00,2013-07-04 04:42:00,
2013-07-04 00:47:00,72.8,69.4,30.07,WSW,249,4.0,7.0,89,0.00,,---,0.00,0.00,VWS V14.00,2013-07-04 04:47:00,
2013-07-04 00:52:00,72.7,68.9,30.08,SW,215,4.0,9.0,88,0.00,,---,0.00,0.00,VWS V14.00,2013-07-04 04:52:00,
2013-07-04 00:57:00,72.8,69.0,30.07,WSW,246,0.0,6.0,88,0.00,,---,0.00,0.00,VWS V14.00,2013-07-04 04:57:00,
2013-07-04 01:02:00,72.7,68.9,30.07,SW,220,6.0,8.0,88,0.00,,---,0.00,0.00,VWS V14.00,2013-07-04 05:02:00,
2013-07-04 01:07:00,72.6,68.8,30.07,SW,214,2.0,7.0,88,0.00,,---,0.00,0.00,VWS V14.00,2013-07-04 05:07:00,
2013-07-04 01:12:00,72.5,68.8,30.07,SSW,212,2.0,9.0,88,0.00,,---,0.00,0.00,VWS V14.00,2013-07-04 05:12:00,
2013-07-04 01:17:00,72.4,68.3,30.07,SW,229,2.0,10.0,87,0.00,,---,0.00,0.00,VWS V14.00,2013-07-04 05:17:00,
2013-07-04 01:22:00,72.3,68.2,30.07,South,180,1.0,7.0,87,0.00,,---,0.00,0.00,VWS V14.00,2013-07-04 05:22:00,
2013-07-04 01:27:00,72.2,67.8,30.07,SW,227,8.0,10.0,86,0.00,,---,0.00,0.00,VWS V14.00,2013-07-04 05:27:00,
2013-07-04 01:32:00,72.2,67.8,30.07,SW,236,4.0,8.0,86,0.00,,---,0.00,0.00,VWS V14.00,2013-07-04 05:32:00,
2013-07-04 01:37:00,72.1,67.7,30.08,SSE,157,2.0,11.0,86,0.00,,---,0.00,0.00,VWS V14.00,2013-07-04 05:37:00,
2013-07-04 01:42:00,72.1,67.7,30.08,SW,221,0.0,9.0,86,0.00,,---,0.00,0.00,VWS V14.00,2013-07-04 05:42:00,
2013-07-04 01:47:00,72.0,67.6,30.08,South,178,0.0,11.0,86,0.00,,---,0.00,0.00,VWS V14.00,2013-07-04 05:47:00,
2013-07-04 01:52:00,71.9,67.5,30.08,SSW,202,3.0,6.0,86,0.00,,---,0.00,0.00,VWS V14.00,2013-07-04 05:52:00,
2013-07-04 01:57:00,71.8,67.7,30.08,SW,227,0.0,5.0,87,0.00,,---,0.00,0.00,VWS V14.00,2013-07-04 05:57:00,
2013-07-04 02:02:00,71.7,67.3,30.08,South,184,2.0,11.0,86,0.00,,---,0.00,0.00,VWS V14.00,2013-07-04 06:02:00,
2013-07-04 02:07:00,71.7,67.6,30.08,SW,215,0.0,6.0,87,0.00,,---,0.00,0.00,VWS V14.00,2013-07-04 06:07:00,
2013-07-04 02:12:00,71.6,67.5,30.08,SW,225,3.0,7.0,87,0.00,,---,0.00,0.00,VWS V14.00,2013-07-04 06:12:00,
2013-07-04 02:17:00,71.6,67.5,30.08,SW,227,4.0,6.0,87,0.00,,---,0.00,0.00,VWS V14.00,2013-07-04 06:17:00,
2013-07-04 02:22:00,71.6,67.5,30.08,WSW,239,2.0,7.0,87,0.00,,---,0.00,0.00,VWS V14.00,2013-07-04 06:22:00,
2013-07-04 02:27:00,71.5,67.4,30.08,SW,229,0.0,5.0,87,0.00,,---,0.00,0.00,VWS V14.00,2013-07-04 06:27:00,
2013-07-04 02:32:00,71.5,67.4,30.08,WSW,257,3.0,6.0,87,0.00,,---,0.00,0.00,VWS V14.00,2013-07-04 06:32:00,
2013-07-04 02:37:00,71.4,67.3,30.08,SW,223,2.0,7.0,87,0.00,,---,0.00,0.00,VWS V14.00,2013-07-04 06:37:00,
2013-07-04 02:42:00,71.3,67.2,30.08,SW,222,0.0,4.0,87,0.00,,---,0.00,0.00,VWS V14.00,2013-07-04 06:42:00,
2013-07-04 02:47:00,71.3,67.6,30.08,SW,234,1.0,2.0,88,0.00,,---,0.00,0.00,VWS V14.00,2013-07-04 06:47:00,
2013-07-04 02:52:00,71.2,67.5,30.08,SSW,205,0.0,7.0,88,0.00,,---,0.00,0.00,VWS V14.00,2013-07-04 06:52:00,
2013-07-04 02:57:00,71.1,67.4,30.08,SSW,209,0.0,6.0,88,0.00,,---,0.00,0.00,VWS V14.00,2013-07-04 06:57:00,
2013-07-04 03:02:00,71.1,67.4,30.08,SSW,207,0.0,6.0,88,0.00,,---,0.00,0.00,VWS V14.00,2013-07-04 07:02:00,
2013-07-04 03:07:00,71.0,67.3,30.08,SW,219,1.0,4.0,88,0.00,,---,0.00,0.00,VWS V14.00,2013-07-04 07:07:00,
2013-07-04 03:12:00,70.9,67.2,30.08,SW,220,0.0,1.0,88,0.00,,---,0.00,0.00,VWS V14.00,2013-07-04 07:12:00,
2013-07-04 03:17:00,70.8,67.1,30.08,SW,215,0.0,2.0,88,0.00,,---,0.00,0.00,VWS V14.00,2013-07-04 07:17:00,
2013-07-04 03:22:00,70.7,67.0,30.08,SW,215,0.0,0.0,88,0.00,,---,0.00,0.00,VWS V14.00,2013-07-04 07:22:00,
2013-07-04 03:27:00,70.6,67.2,30.08,SW,215,0.0,1.0,89,0.00,,---,0.00,0.00,VWS V14.00,2013-07-04 07:27:00,
2013-07-04 03:32:00,70.5,67.1,30.08,SSW,208,0.0,4.0,89,0.00,,---,0.00,0.00,VWS V14.00,2013-07-04 07:32:00,
2013-07-04 03:37:00,70.3,66.9,30.08,SSW,206,0.0,2.0,89,0.00,,---,0.00,0.00,VWS V14.00,2013-07-04 07:37:00,
2013-07-04 03:42:00,70.2,66.8,30.08,SSW,209,0.0,2.0,89,0.00,,---,0.00,0.00,VWS V14.00,2013-07-04 07:42:00,
2013-07-04 03:47:00,70.2,66.8,30.08,WSW,238,0.0,4.0,89,0.00,,---,0.00,0.00,VWS V14.00,2013-07-04 07:47:00,
2013-07-04 03:52:00,70.1,66.7,30.08,WSW,238,0.0,1.0,89,0.00,,---,0.00,0.00,VWS V14.00,2013-07-04 07:52:00,
2013-07-04 03:57:00,70.1,66.7,30.08,SW,234,0.0,4.0,89,0.00,,---,0.00,0.00,VWS V14.00,2013-07-04 07:57:00,
2013-07-04 04:02:00,70.0,66.6,30.08,SSW,212,1.0,5.0,89,0.00,,---,0.00,0.00,VWS V14.00,2013-07-04 08:02:00,
2013-07-04 04:07:00,70.0,66.6,30.08,SSW,204,0.0,1.0,89,0.00,,---,0.00,0.00,VWS V14.00,2013-07-04 08:07:00,
2013-07-04 04:12:00,69.9,66.5,30.08,SSW,204,0.0,2.0,89,0.00,,---,0.00,0.00,VWS V14.00,2013-07-04 08:12:00,
2013-07-04 04:17:00,70.0,66.6,30.08,SSW,192,0.0,0.0,89,0.00,,---,0.00,0.00,VWS V14.00,2013-07-04 08:17:00,
2013-07-04 04:22:00,69.9,66.5,30.08,SSW,192,0.0,0.0,89,0.00,,---,0.00,0.00,VWS V14.00,2013-07-04 08:22:00,
2013-07-04 04:27:00,69.8,66.4,30.08,South,184,0.0,4.0,89,0.00,,---,0.00,0.00,VWS V14.00,2013-07-04 08:27:00,
2013-07-04 04:32:00,69.7,66.3,30.08,SSW,192,0.0,5.0,89,0.00,,---,0.00,0.00,VWS V14.00,2013-07-04 08:32:00,
2013-07-04 04:37:00,69.7,66.3,30.08,SSW,205,0.0,6.0,89,0.00,,---,0.00,0.00,VWS V14.00,2013-07-04 08:37:00,
2013-07-04 04:42:00,69.7,66.6,30.08,SSW,211,0.0,0.0,90,0.00,,---,0.00,0.00,VWS V14.00,2013-07-04 08:42:00,
2013-07-04 04:48:00,69.7,66.6,30.08,SSW,199,0.0,2.0,90,0.00,,---,0.00,0.00,VWS V14.00,2013-07-04 08:48:00,
2013-07-04 04:53:00,69.7,66.6,30.08,South,171,0.0,4.0,90,0.00,,---,0.00,0.00,VWS V14.00,2013-07-04 08:53:00,
2013-07-04 04:58:00,69.6,66.5,30.08,South,171,1.0,2.0,90,0.00,,---,0.00,0.00,VWS V14.00,2013-07-04 08:58:00,
2013-07-04 05:03:00,69.5,66.1,30.08,South,174,0.0,2.0,89,0.00,,---,0.00,0.00,VWS V14.00,2013-07-04 09:03:00,
2013-07-04 05:08:00,69.5,66.1,30.08,South,174,0.0,1.0,89,0.00,,---,0.00,0.00,VWS V14.00,2013-07-04 09:08:00,
2013-07-04 05:13:00,69.5,66.1,30.08,South,174,0.0,0.0,89,0.00,,---,0.00,0.00,VWS V14.00,2013-07-04 09:13:00,
2013-07-04 05:18:00,69.5,66.1,30.08,South,174,0.0,2.0,89,0.00,,---,0.00,0.00,VWS V14.00,2013-07-04 09:18:00,
2013-07-04 05:23:00,69.4,66.0,30.08,SSE,162,0.0,2.0,89,0.00,,---,0.00,0.00,VWS V14.00,2013-07-04 09:23:00,
2013-07-04 05:28:00,69.3,66.2,30.08,SSE,147,0.0,2.0,90,0.00,,---,0.00,0.00,VWS V14.00,2013-07-04 09:28:00,
2013-07-04 05:33:00,69.3,66.2,30.08,SSE,157,0.0,2.0,90,0.00,,---,0.00,0.00,VWS V14.00,2013-07-04 09:33:00,
2013-07-04 05:38:00,69.1,66.1,30.08,WSW,238,0.0,2.0,90,0.00,,---,0.00,0.00,VWS V14.00,2013-07-04 09:38:00,
2013-07-04 05:43:00,69.1,66.1,30.08,SSE,150,1.0,2.0,90,0.00,,---,0.00,0.00,VWS V14.00,2013-07-04 09:43:00,
2013-07-04 05:48:00,69.0,65.9,30.08,SSE,166,1.0,4.0,90,0.00,,---,0.00,0.00,VWS V14.00,2013-07-04 09:48:00,
2013-07-04 05:53:00,69.0,65.9,30.08,South,172,0.0,4.0,90,0.00,,---,0.00,0.00,VWS V14.00,2013-07-04 09:53:00,
2013-07-04 05:58:00,68.9,65.8,30.08,South,169,0.0,4.0,90,0.00,,---,0.00,0.00,VWS V14.00,2013-07-04 09:58:00,
2013-07-04 06:03:00,68.9,65.8,30.08,SSE,157,2.0,6.0,90,0.00,,---,0.00,0.00,VWS V14.00,2013-07-04 10:03:00,
2013-07-04 06:08:00,68.9,65.8,30.08,SSE,162,0.0,2.0,90,0.00,,---,0.00,0.00,VWS V14.00,2013-07-04 10:08:00,
2013-07-04 06:13:00,68.9,65.8,30.09,SSE,162,1.0,4.0,90,0.00,,---,0.00,0.00,VWS V14.00,2013-07-04 10:13:00,
2013-07-04 06:18:00,68.9,65.8,30.09,SSE,162,0.0,1.0,90,0.00,,---,0.00,0.00,VWS V14.00,2013-07-04 10:18:00,
2013-07-04 06:23:00,68.9,65.8,30.09,South,179,0.0,2.0,90,0.00,,---,0.00,0.00,VWS V14.00,2013-07-04 10:23:00,
2013-07-04 06:28:00,68.9,65.8,30.09,South,172,2.0,4.0,90,0.00,,---,0.00,0.00,VWS V14.00,2013-07-04 10:28:00,
2013-07-04 06:33:00,68.9,65.8,30.09,SSE,147,1.0,3.0,90,0.00,,---,0.00,5.00,VWS V14.00,2013-07-04 10:33:00,
2013-07-04 06:38:00,68.9,65.8,30.09,SSE,147,0.0,1.0,90,0.00,,---,0.00,11.00,VWS V14.00,2013-07-04 10:38:00,
2013-07-04 06:43:00,68.9,65.8,30.09,SSE,150,0.0,3.0,90,0.00,,---,0.00,9.00,VWS V14.00,2013-07-04 10:43:00,
2013-07-04 06:48:00,68.9,65.8,30.10,SSE,150,0.0,1.0,90,0.00,,---,0.00,7.00,VWS V14.00,2013-07-04 10:48:00,
2013-07-04 06:53:00,68.8,65.8,30.09,SSE,157,1.0,4.0,90,0.00,,---,0.00,16.00,VWS V14.00,2013-07-04 10:53:00,
2013-07-04 06:58:00,68.8,65.8,30.09,SSE,155,1.0,3.0,90,0.00,,---,0.00,14.00,VWS V14.00,2013-07-04 10:58:00,
2013-07-04 07:03:00,68.8,65.8,30.10,SSE,155,0.0,0.0,90,0.00,,---,0.00,12.00,VWS V14.00,2013-07-04 11:03:00,
2013-07-04 07:08:00,68.8,65.8,30.10,SSE,159,0.0,2.0,90,0.00,,---,0.00,7.00,VWS V14.00,2013-07-04 11:08:00,
2013-07-04 07:13:00,68.8,65.8,30.10,South,179,2.0,6.0,90,0.00,,---,0.00,5.00,VWS V14.00,2013-07-04 11:13:00,
2013-07-04 07:18:00,68.8,65.8,30.10,South,180,0.0,1.0,90,0.00,,---,0.00,5.00,VWS V14.00,2013-07-04 11:18:00,
2013-07-04 07:23:00,68.8,65.8,30.10,SE,146,0.0,2.0,90,0.01,,---,0.01,7.00,VWS V14.00,2013-07-04 11:23:00,
2013-07-04 07:28:00,68.8,65.8,30.10,SE,146,0.0,3.0,90,0.02,,---,0.02,7.00,VWS V14.00,2013-07-04 11:28:00,
2013-07-04 07:33:00,68.6,65.6,30.10,SSE,157,0.0,2.0,90,0.02,,---,0.02,9.00,VWS V14.00,2013-07-04 11:33:00,
2013-07-04 07:38:00,68.5,65.5,30.11,SSE,157,0.0,1.0,90,0.03,,---,0.03,9.00,VWS V14.00,2013-07-04 11:38:00,
2013-07-04 07:43:00,68.4,65.4,30.10,SSE,155,0.0,2.0,90,0.03,,---,0.03,9.00,VWS V14.00,2013-07-04 11:43:00,
2013-07-04 07:48:00,68.3,65.3,30.10,SSE,156,0.0,3.0,90,0.03,,---,0.03,11.00,VWS V14.00,2013-07-04 11:48:00,
2013-07-04 07:53:00,68.2,65.2,30.11,SSE,156,0.0,2.0,90,0.03,,---,0.03,16.00,VWS V14.00,2013-07-04 11:53:00,
2013-07-04 07:58:00,68.1,64.7,30.11,SSE,156,0.0,0.0,89,0.04,,---,0.04,21.00,VWS V14.00,2013-07-04 11:58:00,
2013-07-04 08:03:00,68.1,64.7,30.11,SSE,156,0.0,1.0,89,0.04,,---,0.04,21.00,VWS V14.00,2013-07-04 12:03:00,
2013-07-04 08:09:00,68.0,64.6,30.11,SSE,161,0.0,2.0,89,0.05,,---,0.05,21.00,VWS V14.00,2013-07-04 12:09:00,
2013-07-04 08:14:00,67.9,64.5,30.11,SSE,161,0.0,1.0,89,0.05,,---,0.05,25.00,VWS V14.00,2013-07-04 12:14:00,
2013-07-04 08:19:00,67.9,64.5,30.11,SSE,163,0.0,1.0,89,0.05,,---,0.05,23.00,VWS V14.00,2013-07-04 12:19:00,
2013-07-04 08:24:00,67.9,64.5,30.11,SSE,163,0.0,1.0,89,0.06,,---,0.06,37.00,VWS V14.00,2013-07-04 12:24:00,
2013-07-04 08:29:00,67.9,64.5,30.11,SSE,163,0.0,1.0,89,0.06,,---,0.07,37.00,VWS V14.00,2013-07-04 12:29:00,
2013-07-04 08:34:00,67.9,64.5,30.11,SSE,159,0.0,1.0,89,0.05,,---,0.07,33.00,VWS V14.00,2013-07-04 12:34:00,
2013-07-04 08:39:00,68.0,64.3,30.12,South,178,0.0,5.0,88,0.05,,---,0.07,39.00,VWS V14.00,2013-07-04 12:39:00,
2013-07-04 08:44:00,68.0,64.3,30.12,South,172,0.0,2.0,88,0.04,,---,0.07,53.00,VWS V14.00,2013-07-04 12:44:00,
2013-07-04 08:49:00,68.0,64.3,30.11,South,169,4.0,4.0,88,0.05,,---,0.08,54.00,VWS V14.00,2013-07-04 12:49:00,
2013-07-04 08:54:00,68.0,64.3,30.12,SSE,162,0.0,4.0,88,0.06,,---,0.09,44.00,VWS V14.00,2013-07-04 12:54:00,
2013-07-04 08:59:00,68.0,64.3,30.12,South,169,0.0,2.0,88,0.06,,---,0.09,39.00,VWS V14.00,2013-07-04 12:59:00,
2013-07-04 09:04:00,68.0,64.3,30.12,South,170,3.0,3.0,88,0.05,,---,0.09,35.00,VWS V14.00,2013-07-04 13:04:00,
2013-07-04 09:09:00,68.0,64.6,30.12,South,178,0.0,4.0,89,0.05,,---,0.09,33.00,VWS V14.00,2013-07-04 13:09:00,
2013-07-04 09:14:00,67.9,64.2,30.12,SSE,158,3.0,4.0,88,0.05,,---,0.10,33.00,VWS V14.00,2013-07-04 13:14:00,
2013-07-04 09:19:00,67.9,64.2,30.12,SE,138,0.0,5.0,88,0.06,,---,0.11,33.00,VWS V14.00,2013-07-04 13:19:00,
2013-07-04 09:24:00,67.9,64.2,30.12,SE,138,0.0,1.0,88,0.06,,---,0.11,33.00,VWS V14.00,2013-07-04 13:24:00,
2013-07-04 09:29:00,67.9,64.2,30.12,SE,142,1.0,2.0,88,0.06,,---,0.12,37.00,VWS V14.00,2013-07-04 13:29:00,
2013-07-04 09:34:00,67.9,64.2,30.12,SE,143,1.0,2.0,88,0.06,,---,0.13,46.00,VWS V14.00,2013-07-04 13:34:00,
2013-07-04 09:39:00,67.9,64.2,30.12,SE,143,0.0,2.0,88,0.06,,---,0.13,56.00,VWS V14.00,2013-07-04 13:39:00,
2013-07-04 09:48:00,68.0,64.3,30.12,ESE,105,0.0,1.0,88,0.08,,---,0.15,51.00,VWS V14.00,2013-07-04 13:48:00,
2013-07-04 09:53:00,68.0,64.3,30.12,ESE,105,0.0,3.0,88,0.07,,---,0.15,56.00,VWS V14.00,2013-07-04 13:53:00,
2013-07-04 09:58:00,68.0,64.3,30.12,ESE,105,0.0,0.0,88,0.07,,---,0.16,32.00,VWS V14.00,2013-07-04 13:58:00,
2013-07-04 10:03:00,68.0,64.3,30.12,ESE,105,0.0,1.0,88,0.08,,---,0.17,26.00,VWS V14.00,2013-07-04 14:03:00,
2013-07-04 10:08:00,68.0,64.3,30.12,ESE,105,0.0,1.0,88,0.12,,---,0.21,44.00,VWS V14.00,2013-07-04 14:08:00,
2013-07-04 10:13:00,67.9,64.2,30.12,SW,221,3.0,5.0,88,0.20,,---,0.29,67.00,VWS V14.00,2013-07-04 14:13:00,
2013-07-04 10:18:00,67.8,64.1,30.12,WSW,246,2.0,4.0,88,0.24,,---,0.34,62.00,VWS V14.00,2013-07-04 14:18:00,
2013-07-04 10:23:00,67.8,64.1,30.12,SW,231,2.0,4.0,88,0.25,,---,0.36,51.00,VWS V14.00,2013-07-04 14:23:00,
2013-07-04 10:28:00,67.9,63.9,30.12,SW,222,0.0,3.0,87,0.25,,---,0.36,63.00,VWS V14.00,2013-07-04 14:28:00,
2013-07-04 10:33:00,68.0,64.0,30.12,SSW,196,0.0,3.0,87,0.24,,---,0.36,72.00,VWS V14.00,2013-07-04 14:33:00,
2013-07-04 10:38:00,68.1,64.1,30.12,SSW,196,0.0,0.0,87,0.23,,---,0.36,62.00,VWS V14.00,2013-07-04 14:38:00,
2013-07-04 10:43:00,68.2,64.2,30.12,SSW,194,0.0,1.0,87,0.24,,---,0.37,44.00,VWS V14.00,2013-07-04 14:43:00,
2013-07-04 10:48:00,68.2,64.2,30.12,SSW,194,0.0,1.0,87,0.23,,---,0.37,33.00,VWS V14.00,2013-07-04 14:48:00,
2013-07-04 10:53:00,68.1,64.1,30.12,SSW,194,0.0,1.0,87,0.22,,---,0.37,40.00,VWS V14.00,2013-07-04 14:53:00,
2013-07-04 10:58:00,68.2,64.2,30.12,South,188,0.0,2.0,87,0.23,,---,0.38,51.00,VWS V14.00,2013-07-04 14:58:00,
2013-07-04 11:03:00,68.2,64.2,30.12,East,96,0.0,5.0,87,0.22,,---,0.38,62.00,VWS V14.00,2013-07-04 15:03:00,
2013-07-04 11:08:00,68.2,64.2,30.12,East,100,2.0,2.0,87,0.21,,---,0.38,56.00,VWS V14.00,2013-07-04 15:08:00,
2013-07-04 11:13:00,68.2,64.2,30.12,South,169,0.0,1.0,87,0.16,,---,0.39,62.00,VWS V14.00,2013-07-04 15:13:00,
2013-07-04 11:18:00,68.2,64.2,30.12,South,169,0.0,1.0,87,0.09,,---,0.39,77.00,VWS V14.00,2013-07-04 15:18:00,
2013-07-04 11:23:00,68.4,64.4,30.12,South,172,0.0,1.0,87,0.04,,---,0.39,77.00,VWS V14.00,2013-07-04 15:23:00,
2013-07-04 11:28:00,68.4,64.4,30.12,South,171,0.0,5.0,87,0.03,,---,0.39,104.00,VWS V14.00,2013-07-04 15:28:00,
2013-07-04 11:33:00,68.5,64.5,30.12,South,171,0.0,1.0,87,0.03,,---,0.39,97.00,VWS V14.00,2013-07-04 15:33:00,
2013-07-04 11:38:00,68.5,64.5,30.12,SSE,164,0.0,2.0,87,0.03,,---,0.39,97.00,VWS V14.00,2013-07-04 15:38:00,
2013-07-04 11:43:00,68.5,64.5,30.12,SSE,162,0.0,2.0,87,0.03,,---,0.39,153.00,VWS V14.00,2013-07-04 15:43:00,
2013-07-04 11:48:00,68.6,64.6,30.12,SSE,150,0.0,2.0,87,0.02,,---,0.39,192.00,VWS V14.00,2013-07-04 15:48:00,
2013-07-04 11:53:00,68.9,64.9,30.12,SSE,157,1.0,4.0,87,0.02,,---,0.39,155.00,VWS V14.00,2013-07-04 15:53:00,
2013-07-04 11:58:00,69.1,65.1,30.12,SSE,155,0.0,1.0,87,0.02,,---,0.39,90.00,VWS V14.00,2013-07-04 15:58:00,
2013-07-04 12:03:00,69.2,65.2,30.12,SSE,157,0.0,2.0,87,0.01,,---,0.39,114.00,VWS V14.00,2013-07-04 16:03:00,
2013-07-04 12:08:00,69.3,65.3,30.12,SSE,157,0.0,1.0,87,0.01,,---,0.39,100.00,VWS V14.00,2013-07-04 16:08:00,
2013-07-04 12:13:00,69.4,65.4,30.12,SSE,157,0.0,0.0,87,0.01,,---,0.39,105.00,VWS V14.00,2013-07-04 16:13:00,
2013-07-04 12:19:00,69.6,65.6,30.12,SSE,157,0.0,1.0,87,0.00,,---,0.39,141.00,VWS V14.00,2013-07-04 16:19:00,
2013-07-04 12:24:00,69.6,65.6,30.12,SE,133,2.0,4.0,87,0.01,,---,0.40,162.00,VWS V14.00,2013-07-04 16:24:00,
2013-07-04 12:29:00,69.5,65.5,30.12,ESE,103,0.0,5.0,87,0.01,,---,0.40,153.00,VWS V14.00,2013-07-04 16:29:00,
2013-07-04 12:34:00,69.7,65.7,30.12,ESE,103,0.0,1.0,87,0.02,,---,0.41,135.00,VWS V14.00,2013-07-04 16:34:00,
2013-07-04 12:39:00,69.7,65.7,30.12,ESE,103,2.0,2.0,87,0.03,,---,0.42,134.00,VWS V14.00,2013-07-04 16:39:00,
2013-07-04 12:44:00,69.7,65.7,30.12,ESE,113,1.0,4.0,87,0.03,,---,0.42,132.00,VWS V14.00,2013-07-04 16:44:00,
2013-07-04 12:49:00,69.5,65.5,30.12,East,101,0.0,5.0,87,0.04,,---,0.43,139.00,VWS V14.00,2013-07-04 16:49:00,
2013-07-04 12:54:00,69.5,65.5,30.12,SSE,150,0.0,4.0,87,0.04,,---,0.43,156.00,VWS V14.00,2013-07-04 16:54:00,
2013-07-04 12:59:00,69.7,65.7,30.12,SSE,149,0.0,4.0,87,0.05,,---,0.44,174.00,VWS V14.00,2013-07-04 16:59:00,
2013-07-04 13:04:00,69.8,65.8,30.12,SSE,152,0.0,1.0,87,0.05,,---,0.44,162.00,VWS V14.00,2013-07-04 17:04:00,
2013-07-04 13:09:00,69.8,65.8,30.12,SE,134,0.0,6.0,87,0.06,,---,0.45,171.00,VWS V14.00,2013-07-04 17:09:00,
2013-07-04 13:14:00,69.8,65.8,30.12,SE,135,0.0,6.0,87,0.06,,---,0.45,167.00,VWS V14.00,2013-07-04 17:14:00,
2013-07-04 13:19:00,69.9,65.9,30.12,SE,137,0.0,2.0,87,0.06,,---,0.45,155.00,VWS V14.00,2013-07-04 17:19:00,
2013-07-04 13:24:00,69.9,65.9,30.12,ESE,120,0.0,2.0,87,0.07,,---,0.46,192.00,VWS V14.00,2013-07-04 17:24:00,
2013-07-04 13:29:00,69.9,65.9,30.12,East,101,2.0,5.0,87,0.06,,---,0.46,179.00,VWS V14.00,2013-07-04 17:29:00,
2013-07-04 13:34:00,69.8,65.8,30.12,East,101,0.0,1.0,87,0.07,,---,0.47,172.00,VWS V14.00,2013-07-04 17:34:00,
2013-07-04 13:39:00,70.0,66.0,30.12,East,101,0.0,0.0,87,0.07,,---,0.48,91.00,VWS V14.00,2013-07-04 17:39:00,
2013-07-04 13:44:00,70.2,66.2,30.11,East,101,0.0,0.0,87,0.06,,---,0.48,86.00,VWS V14.00,2013-07-04 17:44:00,
2013-07-04 13:49:00,70.1,66.1,30.12,ESE,106,0.0,4.0,87,0.07,,---,0.49,165.00,VWS V14.00,2013-07-04 17:49:00,
2013-07-04 13:54:00,69.9,65.9,30.12,ESE,105,0.0,5.0,87,0.06,,---,0.49,181.00,VWS V14.00,2013-07-04 17:54:00,
2013-07-04 13:59:00,69.8,65.8,30.12,ESE,110,2.0,3.0,87,0.06,,---,0.49,183.00,VWS V14.00,2013-07-04 17:59:00,
2013-07-04 14:04:00,69.6,65.9,30.11,ESE,111,0.0,5.0,88,0.06,,---,0.50,199.00,VWS V14.00,2013-07-04 18:04:00,
2013-07-04 14:09:00,69.7,66.0,30.11,ESE,111,1.0,2.0,88,0.06,,---,0.50,183.00,VWS V14.00,2013-07-04 18:09:00,
2013-07-04 14:14:00,69.8,65.8,30.11,ESE,110,0.0,4.0,87,0.05,,---,0.50,153.00,VWS V14.00,2013-07-04 18:14:00,
2013-07-04 14:19:00,69.8,65.8,30.11,ESE,110,0.0,3.0,87,0.06,,---,0.51,113.00,VWS V14.00,2013-07-04 18:19:00,
2013-07-04 14:24:00,69.7,65.7,30.11,ESE,116,0.0,4.0,87,0.08,,---,0.53,90.00,VWS V14.00,2013-07-04 18:24:00,
2013-07-04 14:29:00,69.6,65.6,30.11,ESE,109,0.0,4.0,87,0.09,,---,0.55,81.00,VWS V14.00,2013-07-04 18:29:00,
2013-07-04 14:34:00,69.6,65.6,30.11,ESE,109,0.0,2.0,87,0.10,,---,0.56,76.00,VWS V14.00,2013-07-04 18:34:00,
2013-07-04 14:39:00,69.6,65.6,30.11,ESE,120,0.0,4.0,87,0.15,,---,0.62,65.00,VWS V14.00,2013-07-04 18:39:00,
2013-07-04 14:44:00,69.6,65.6,30.11,ESE,120,1.0,2.0,87,0.21,,---,0.69,58.00,VWS V14.00,2013-07-04 18:44:00,
2013-07-04 14:49:00,69.5,65.5,30.11,ESE,119,0.0,7.0,87,0.23,,---,0.71,104.00,VWS V14.00,2013-07-04 18:49:00,
2013-07-04 14:54:00,69.5,65.5,30.11,ESE,122,0.0,4.0,87,0.25,,---,0.74,93.00,VWS V14.00,2013-07-04 18:54:00,
2013-07-04 14:59:00,69.5,65.5,30.10,East,84,0.0,6.0,87,0.28,,---,0.77,81.00,VWS V14.00,2013-07-04 18:59:00,
2013-07-04 15:04:00,69.5,65.5,30.10,ESE,111,1.0,5.0,87,0.35,,---,0.84,67.00,VWS V14.00,2013-07-04 19:04:00,
2013-07-04 15:09:00,69.2,65.2,30.10,ESE,118,4.0,8.0,87,0.43,,---,0.93,58.00,VWS V14.00,2013-07-04 19:09:00,
2013-07-04 15:14:00,69.0,65.0,30.10,ESE,109,0.0,6.0,87,0.52,,---,1.02,54.00,VWS V14.00,2013-07-04 19:14:00,
2013-07-04 15:19:00,68.9,64.9,30.10,ESE,118,0.0,7.0,87,0.60,,---,1.10,53.00,VWS V14.00,2013-07-04 19:19:00,
2013-07-04 15:24:00,68.7,64.7,30.10,ESE,123,0.0,3.0,87,0.64,,---,1.16,40.00,VWS V14.00,2013-07-04 19:24:00,
2013-07-04 15:29:00,68.6,64.6,30.10,ESE,123,0.0,0.0,87,0.68,,---,1.21,39.00,VWS V14.00,2013-07-04 19:29:00,
2013-07-04 15:34:00,68.5,64.5,30.10,ESE,123,0.0,1.0,87,0.71,,---,1.26,28.00,VWS V14.00,2013-07-04 19:34:00,
2013-07-04 15:39:00,68.5,64.5,30.10,ESE,123,2.0,2.0,87,0.74,,---,1.30,30.00,VWS V14.00,2013-07-04 19:39:00,
2013-07-04 15:44:00,68.5,64.5,30.11,ESE,123,0.0,2.0,87,0.77,,---,1.40,35.00,VWS V14.00,2013-07-04 19:44:00,
2013-07-04 15:49:00,68.5,64.5,30.10,ESE,123,0.0,0.0,87,0.79,,---,1.48,46.00,VWS V14.00,2013-07-04 19:49:00,
2013-07-04 15:54:00,68.5,64.5,30.10,ESE,123,0.0,0.0,87,0.80,,---,1.51,60.00,VWS V14.00,2013-07-04 19:54:00,
2013-07-04 15:59:00,68.6,64.6,30.10,NNW,348,0.0,4.0,87,0.79,,---,1.53,63.00,VWS V14.00,2013-07-04 19:59:00,
2013-07-04 16:04:00,68.6,64.6,30.10,NNW,348,0.0,0.0,87,0.77,,---,1.54,86.00,VWS V14.00,2013-07-04 20:04:00,
2013-07-04 16:09:00,68.6,64.6,30.09,NNE,13,2.0,2.0,87,0.71,,---,1.55,111.00,VWS V14.00,2013-07-04 20:09:00,
2013-07-04 16:14:00,68.5,64.5,30.09,NNE,13,0.0,2.0,87,0.62,,---,1.55,100.00,VWS V14.00,2013-07-04 20:14:00,
2013-07-04 16:19:00,68.6,64.6,30.09,NE,35,0.0,0.0,87,0.45,,---,1.55,98.00,VWS V14.00,2013-07-04 20:19:00,
2013-07-04 16:24:00,68.6,64.6,30.09,East,90,2.0,2.0,87,0.41,,---,1.57,91.00,VWS V14.00,2013-07-04 20:24:00,
2013-07-04 16:29:00,68.8,64.8,30.08,East,99,0.0,0.0,87,0.39,,---,1.60,90.00,VWS V14.00,2013-07-04 20:29:00,
2013-07-04 16:34:00,68.9,64.9,30.08,ESE,105,2.0,2.0,87,0.36,,---,1.62,98.00,VWS V14.00,2013-07-04 20:34:00,
2013-07-04 16:39:00,68.9,64.9,30.08,East,99,1.0,1.0,87,0.32,,---,1.62,128.00,VWS V14.00,2013-07-04 20:39:00,
2013-07-04 16:44:00,69.0,65.0,30.08,ESE,105,2.0,2.0,87,0.23,,---,1.63,123.00,VWS V14.00,2013-07-04 20:44:00,
2013-07-04 16:49:00,69.1,65.1,30.08,SE,124,5.0,6.0,87,0.15,,---,1.63,134.00,VWS V14.00,2013-07-04 20:49:00,
2013-07-04 16:54:00,69.2,65.2,30.08,SE,124,0.0,0.0,87,0.12,,---,1.63,160.00,VWS V14.00,2013-07-04 20:54:00,
2013-07-04 16:59:00,69.4,65.4,30.08,SE,124,0.0,0.0,87,0.10,,---,1.63,114.00,VWS V14.00,2013-07-04 20:59:00,
2013-07-04 17:04:00,69.6,65.6,30.08,SE,124,3.0,3.0,87,0.09,,---,1.63,113.00,VWS V14.00,2013-07-04 21:04:00,
2013-07-04 17:09:00,69.6,65.6,30.08,SE,124,0.0,0.0,87,0.08,,---,1.63,69.00,VWS V14.00,2013-07-04 21:09:00,
2013-07-04 17:14:00,69.6,65.6,30.08,ESE,121,0.0,0.0,87,0.08,,---,1.63,79.00,VWS V14.00,2013-07-04 21:14:00,
2013-07-04 17:19:00,69.6,65.6,30.08,ESE,113,2.0,2.0,87,0.08,,---,1.63,98.00,VWS V14.00,2013-07-04 21:19:00,
2013-07-04 17:24:00,69.6,65.6,30.07,ESE,113,0.0,1.0,87,0.06,,---,1.63,79.00,VWS V14.00,2013-07-04 21:24:00,
2013-07-04 17:29:00,69.6,65.6,30.07,ESE,109,0.0,1.0,87,0.03,,---,1.63,90.00,VWS V14.00,2013-07-04 21:29:00,
2013-07-04 17:34:00,69.7,65.7,30.07,ESE,115,0.0,0.0,87,0.02,,---,1.64,127.00,VWS V14.00,2013-07-04 21:34:00,
2013-07-04 17:39:00,69.8,65.8,30.06,ESE,115,0.0,0.0,87,0.02,,---,1.64,149.00,VWS V14.00,2013-07-04 21:39:00,
2013-07-04 17:44:00,70.0,65.6,30.06,ESE,115,0.0,0.0,86,0.01,,---,1.64,151.00,VWS V14.00,2013-07-04 21:44:00,
2013-07-04 17:49:00,70.2,66.2,30.06,ESE,115,0.0,0.0,87,0.01,,---,1.64,146.00,VWS V14.00,2013-07-04 21:49:00,
2013-07-04 17:54:00,70.3,66.2,30.06,ESE,115,0.0,0.0,87,0.01,,---,1.64,100.00,VWS V14.00,2013-07-04 21:54:00,
2013-07-04 17:59:00,70.3,66.2,30.06,ESE,115,0.0,0.0,87,0.01,,---,1.64,67.00,VWS V14.00,2013-07-04 21:59:00,
2013-07-04 18:04:00,70.3,66.2,30.06,ESE,115,0.0,0.0,87,0.01,,---,1.64,42.00,VWS V14.00,2013-07-04 22:04:00,
2013-07-04 18:09:00,70.2,66.2,30.06,ESE,115,0.0,0.0,87,0.01,,---,1.64,35.00,VWS V14.00,2013-07-04 22:09:00,
2013-07-04 18:14:00,70.2,66.2,30.06,ESE,115,1.0,1.0,87,0.01,,---,1.64,37.00,VWS V14.00,2013-07-04 22:14:00,
2013-07-04 18:19:00,70.1,66.1,30.06,SE,131,2.0,2.0,87,0.01,,---,1.64,86.00,VWS V14.00,2013-07-04 22:19:00,
2013-07-04 18:24:00,69.9,65.9,30.06,SE,138,0.0,0.0,87,0.01,,---,1.64,65.00,VWS V14.00,2013-07-04 22:24:00,
2013-07-04 18:29:00,69.8,65.8,30.05,SSE,150,0.0,0.0,87,0.01,,---,1.64,83.00,VWS V14.00,2013-07-04 22:29:00,
2013-07-04 18:34:00,69.8,65.8,30.06,SSE,150,0.0,0.0,87,0.00,,---,1.64,84.00,VWS V14.00,2013-07-04 22:34:00,
2013-07-04 18:39:00,69.8,65.8,30.06,SSE,150,0.0,0.0,87,0.00,,---,1.64,102.00,VWS V14.00,2013-07-04 22:39:00,
2013-07-04 18:44:00,69.8,65.8,30.06,SE,126,0.0,2.0,87,0.00,,---,1.64,104.00,VWS V14.00,2013-07-04 22:44:00,
2013-07-04 18:49:00,69.7,65.7,30.06,SSE,150,0.0,0.0,87,0.00,,---,1.64,111.00,VWS V14.00,2013-07-04 22:49:00,
2013-07-04 18:54:00,69.7,65.7,30.06,SSE,150,0.0,0.0,87,0.00,,---,1.64,100.00,VWS V14.00,2013-07-04 22:54:00,
2013-07-04 18:59:00,69.8,65.8,30.06,SSE,151,1.0,1.0,87,0.00,,---,1.64,65.00,VWS V14.00,2013-07-04 22:59:00,
2013-07-04 19:04:00,69.8,65.8,30.06,SSE,151,0.0,1.0,87,0.00,,---,1.64,53.00,VWS V14.00,2013-07-04 23:04:00,
2013-07-04 19:09:00,69.8,65.8,30.06,SE,128,0.0,2.0,87,0.00,,---,1.64,42.00,VWS V14.00,2013-07-04 23:09:00,
2013-07-04 19:15:00,69.7,65.7,30.06,SE,128,0.0,0.0,87,0.00,,---,1.64,72.00,VWS V14.00,2013-07-04 23:15:00,
2013-07-04 19:20:00,69.7,65.7,30.06,South,172,0.0,0.0,87,0.00,,---,1.64,76.00,VWS V14.00,2013-07-04 23:20:00,
2013-07-04 19:25:00,69.6,65.6,30.06,SSE,158,0.0,0.0,87,0.00,,---,1.64,67.00,VWS V14.00,2013-07-04 23:25:00,
2013-07-04 19:30:00,69.6,65.6,30.05,SE,144,0.0,0.0,87,0.00,,---,1.64,54.00,VWS V14.00,2013-07-04 23:30:00,
2013-07-04 19:35:00,69.6,65.6,30.05,SE,140,0.0,0.0,87,0.00,,---,1.64,47.00,VWS V14.00,2013-07-04 23:35:00,
2013-07-04 19:40:00,69.5,65.5,30.05,SE,140,0.0,0.0,87,0.00,,---,1.64,42.00,VWS V14.00,2013-07-04 23:40:00,
2013-07-04 19:45:00,69.5,65.5,30.05,SE,140,0.0,0.0,87,0.00,,---,1.64,37.00,VWS V14.00,2013-07-04 23:45:00,
2013-07-04 19:50:00,69.5,65.5,30.05,SE,130,0.0,0.0,87,0.00,,---,1.64,32.00,VWS V14.00,2013-07-04 23:50:00,
2013-07-04 19:55:00,69.4,65.4,30.06,SE,130,1.0,2.0,87,0.00,,---,1.64,26.00,VWS V14.00,2013-07-04 23:55:00,
2013-07-04 20:00:00,69.3,65.3,30.06,SE,130,0.0,0.0,87,0.00,,---,1.64,25.00,VWS V14.00,2013-07-05 00:00:00,
2013-07-04 20:05:00,69.3,65.3,30.06,SE,130,0.0,0.0,87,0.00,,---,1.64,30.00,VWS V14.00,2013-07-05 00:05:00,
2013-07-04 20:10:00,69.3,65.3,30.06,SE,130,0.0,0.0,87,0.00,,---,1.64,33.00,VWS V14.00,2013-07-05 00:10:00,
2013-07-04 20:15:00,69.3,65.3,30.06,SE,139,0.0,0.0,87,0.00,,---,1.64,26.00,VWS V14.00,2013-07-05 00:15:00,
2013-07-04 20:20:00,69.2,65.2,30.06,SE,139,0.0,0.0,87,0.00,,---,1.64,23.00,VWS V14.00,2013-07-05 00:20:00,
2013-07-04 20:25:00,69.2,65.2,30.06,SE,140,0.0,0.0,87,0.00,,---,1.64,19.00,VWS V14.00,2013-07-05 00:25:00,
2013-07-04 20:30:00,69.2,65.2,30.06,SE,140,0.0,0.0,87,0.00,,---,1.64,14.00,VWS V14.00,2013-07-05 00:30:00,
2013-07-04 20:35:00,69.2,65.2,30.05,SE,139,0.0,2.0,87,0.00,,---,1.64,11.00,VWS V14.00,2013-07-05 00:35:00,
2013-07-04 20:40:00,69.1,65.1,30.05,SE,131,0.0,0.0,87,0.00,,---,1.64,7.00,VWS V14.00,2013-07-05 00:40:00,
2013-07-04 20:45:00,69.1,65.1,30.05,SE,138,0.0,0.0,87,0.00,,---,1.64,5.00,VWS V14.00,2013-07-05 00:45:00,
2013-07-04 20:50:00,69.1,65.1,30.05,SE,138,0.0,1.0,87,0.00,,---,1.64,0.00,VWS V14.00,2013-07-05 00:50:00,
2013-07-04 20:55:00,69.0,65.0,30.05,SE,138,0.0,0.0,87,0.01,,---,1.65,0.00,VWS V14.00,2013-07-05 00:55:00,
2013-07-04 21:00:00,69.0,65.0,30.05,SE,138,0.0,0.0,87,0.01,,---,1.65,0.00,VWS V14.00,2013-07-05 01:00:00,
2013-07-04 21:05:00,69.0,65.0,30.05,SE,138,0.0,0.0,87,0.01,,---,1.65,0.00,VWS V14.00,2013-07-05 01:05:00,
2013-07-04 21:10:00,69.0,65.0,30.05,SE,138,0.0,0.0,87,0.01,,---,1.65,0.00,VWS V14.00,2013-07-05 01:10:00,
2013-07-04 21:15:00,69.0,65.0,30.05,SE,138,0.0,0.0,87,0.01,,---,1.65,0.00,VWS V14.00,2013-07-05 01:15:00,
2013-07-04 21:20:00,69.0,65.0,30.05,SE,138,0.0,0.0,87,0.01,,---,1.65,0.00,VWS V14.00,2013-07-05 01:20:00,
2013-07-04 21:25:00,69.0,65.0,30.06,West,278,1.0,4.0,87,0.01,,---,1.65,0.00,VWS V14.00,2013-07-05 01:25:00,
2013-07-04 21:30:00,69.1,65.1,30.06,WNW,284,1.0,4.0,87,0.02,,---,1.66,0.00,VWS V14.00,2013-07-05 01:30:00,
2013-07-04 21:35:00,69.0,65.0,30.07,WNW,292,3.0,5.0,87,0.02,,---,1.66,0.00,VWS V14.00,2013-07-05 01:35:00,
2013-07-04 21:40:00,69.0,65.0,30.07,West,265,2.0,2.0,87,0.02,,---,1.66,0.00,VWS V14.00,2013-07-05 01:40:00,
2013-07-04 21:45:00,68.9,64.9,30.07,West,275,0.0,1.0,87,0.03,,---,1.67,0.00,VWS V14.00,2013-07-05 01:45:00,
2013-07-04 21:50:00,68.9,64.9,30.07,WNW,289,0.0,1.0,87,0.03,,---,1.67,0.00,VWS V14.00,2013-07-05 01:50:00,
2013-07-04 21:55:00,68.9,64.9,30.07,SSW,212,5.0,5.0,87,0.02,,---,1.67,0.00,VWS V14.00,2013-07-05 01:55:00,
2013-07-04 22:00:00,68.9,64.9,30.07,SSW,205,0.0,1.0,87,0.03,,---,1.68,0.00,VWS V14.00,2013-07-05 02:00:00,
2013-07-04 22:05:00,68.8,64.8,30.06,ENE,59,0.0,2.0,87,0.03,,---,1.68,0.00,VWS V14.00,2013-07-05 02:05:00,
2013-07-04 22:10:00,68.8,64.8,30.06,SE,124,0.0,0.0,87,0.03,,---,1.68,0.00,VWS V14.00,2013-07-05 02:10:00,
2013-07-04 22:15:00,68.8,64.8,30.05,SE,124,0.0,1.0,87,0.03,,---,1.68,0.00,VWS V14.00,2013-07-05 02:15:00,
2013-07-04 22:20:00,68.7,64.7,30.05,SE,124,0.0,0.0,87,0.04,,---,1.69,0.00,VWS V14.00,2013-07-05 02:20:00,
2013-07-04 22:25:00,68.6,64.6,30.04,ESE,103,0.0,4.0,87,0.04,,---,1.69,0.00,VWS V14.00,2013-07-05 02:25:00,
2013-07-04 22:30:00,68.5,64.5,30.04,East,100,4.0,5.0,87,0.04,,---,1.70,0.00,VWS V14.00,2013-07-05 02:30:00,
2013-07-04 22:35:00,68.2,64.2,30.05,ESE,111,0.0,1.0,87,0.04,,---,1.70,0.00,VWS V14.00,2013-07-05 02:35:00,
2013-07-04 22:40:00,68.0,64.0,30.06,ESE,111,0.0,0.0,87,0.04,,---,1.70,0.00,VWS V14.00,2013-07-05 02:40:00,
2013-07-04 22:45:00,67.8,63.8,30.06,ESE,111,0.0,0.0,87,0.03,,---,1.70,0.00,VWS V14.00,2013-07-05 02:45:00,
2013-07-04 22:50:00,67.7,63.7,30.07,East,98,0.0,2.0,87,0.04,,---,1.71,0.00,VWS V14.00,2013-07-05 02:50:00,
2013-07-04 22:55:00,67.6,63.6,30.07,SW,232,1.0,4.0,87,0.04,,---,1.71,0.00,VWS V14.00,2013-07-05 02:55:00,
2013-07-04 23:00:00,67.6,63.6,30.06,WSW,244,4.0,4.0,87,0.03,,---,1.71,0.00,VWS V14.00,2013-07-05 03:00:00,
2013-07-04 23:05:00,67.6,63.6,30.06,SW,232,0.0,0.0,87,0.03,,---,1.71,0.00,VWS V14.00,2013-07-05 03:05:00,
2013-07-04 23:10:00,67.6,63.6,30.06,WSW,242,0.0,0.0,87,0.03,,---,1.71,0.00,VWS V14.00,2013-07-05 03:10:00,
2013-07-04 23:15:00,67.5,63.5,30.06,WSW,243,1.0,4.0,87,0.03,,---,1.71,0.00,VWS V14.00,2013-07-05 03:15:00,
2013-07-04 23:20:00,67.5,63.5,30.06,West,265,0.0,2.0,87,0.02,,---,1.71,0.00,VWS V14.00,2013-07-05 03:20:00,
2013-07-04 23:25:00,67.5,63.5,30.06,WNW,299,1.0,1.0,87,0.02,,---,1.71,0.00,VWS V14.00,2013-07-05 03:25:00,
2013-07-04 23:30:00,67.4,63.4,30.06,WNW,300,0.0,5.0,87,0.01,,---,1.71,0.00,VWS V14.00,2013-07-05 03:30:00,
2013-07-04 23:35:00,67.3,63.3,30.06,WNW,292,2.0,2.0,87,0.01,,---,1.71,0.00,VWS V14.00,2013-07-05 03:35:00,
2013-07-04 23:40:00,67.3,63.3,30.07,WSW,255,2.0,3.0,87,0.01,,---,1.71,0.00,VWS V14.00,2013-07-05 03:40:00,
2013-07-04 23:45:00,67.3,63.3,30.08,WNW,294,0.0,0.0,87,0.01,,---,1.71,0.00,VWS V14.00,2013-07-05 03:45:00,
2013-07-04 23:50:00,67.3,63.3,30.08,WNW,296,4.0,8.0,87,0.00,,---,1.71,0.00,VWS V14.00,2013-07-05 03:50:00,
2013-07-04 23:55:00,67.2,63.2,30.08,NW,306,6.0,7.0,87,0.00,,---,0.00,0.00,VWS V14.00,2013-07-05 03:55:00,